Date,TemperatureHighF,TemperatureAvgF,TemperatureLowF,DewpointHighF,DewpointAvgF,DewpointLowF,HumidityHigh,HumidityAvg,HumidityLow,PressureMaxIn,PressureMinIn,WindSpeedMaxMPH,WindSpeedAvgMPH,GustSpeedMaxMPH,PrecipitationSumIn
2013-1-1,77.1,72.7,66.9,65.2,61.4,58.5,81,68,60,30.22,30.07,9,4,14,0.00
2013-1-2,79.0,71.2,61.5,68.7,65.1,58.9,95,82,67,30.11,30.01,7,2,10,0.00
2013-1-3,79.1,72.9,66.7,71.1,67.8,64.9,95,85,70,30.15,30.05,8,2,11,0.03
2013-1-4,79.7,71.7,65.6,72.3,68.5,64.4,97,90,75,30.24,30.12,6,2,9,0.00
2013-1-5,75.4,69.2,66.3,70.5,67.3,65.1,97,94,80,30.27,30.17,6,2,10,0.19
2013-1-6,80.0,74.7,66.2,72.7,70.3,65.2,98,87,77,30.21,30.08,8,3,11,0.00
2013-1-7,74.5,70.6,67.5,70.1,68.3,66.3,97,93,83,30.18,30.08,6,2,8,0.39
2013-1-8,80.3,76.4,72.3,73.8,71.8,69.8,93,86,79,30.21,30.09,9,5,12,0.20
2013-1-9,79.8,77.2,74.9,72.7,71.5,69.9,93,83,77,30.29,30.17,10,6,13,0.00
2013-1-10,78.4,76.4,75.0,70.6,67.8,65.4,82,75,65,30.32,30.20,10,7,14,0.00
2013-1-11,79.2,75.9,74.0,70.3,68.5,67.0,85,78,73,30.27,30.17,10,6,17,0.00
2013-1-12,78.4,75.4,73.4,70.1,68.1,65.2,87,78,71,30.20,30.11,8,5,13,0.02
2013-1-13,79.2,75.5,73.5,68.5,66.6,64.9,81,74,65,30.14,30.09,8,6,14,0.00
2013-1-14,78.6,75.1,72.5,68.0,65.2,62.3,80,71,64,30.19,30.13,7,4,11,0.00
2013-1-15,76.8,74.8,72.8,69.0,66.9,63.5,83,77,71,30.15,30.06,7,4,9,0.00
2013-1-16,79.8,74.8,66.3,70.4,67.7,62.0,91,79,70,30.12,30.03,7,3,9,0.22
2013-1-17,79.2,71.8,67.8,72.5,69.2,65.7,97,92,78,30.10,30.01,9,2,9,0.31
2013-1-18,70.5,63.9,51.9,61.4,54.3,45.9,80,71,63,30.25,30.16,9,6,15,0.00
2013-1-19,71.6,68.2,63.4,67.7,63.8,59.2,97,87,68,30.23,30.11,6,3,9,0.63
2013-1-20,77.3,69.9,63.2,70.1,66.7,62.6,99,90,73,30.16,30.03,6,2,11,0.11
2013-1-21,78.8,71.5,65.6,71.2,67.6,64.0,97,88,75,30.09,29.98,7,3,14,0.02
2013-1-22,74.8,68.1,62.0,63.8,59.5,54.1,95,75,59,30.23,30.02,12,7,20,0.00
2013-1-23,72.9,67.9,60.7,58.4,55.3,52.2,83,65,52,30.31,30.21,12,6,18,0.00
2013-1-24,73.3,65.3,59.3,56.0,53.6,48.1,85,67,49,30.31,30.21,8,4,11,0.00
2013-1-25,75.3,66.6,59.0,62.0,55.9,50.6,82,69,55,30.31,30.19,7,2,10,0.00
2013-1-26,75.4,68.1,59.6,62.2,58.9,52.8,91,74,57,30.27,30.18,7,3,9,0.00
2013-1-27,76.3,71.0,63.1,64.6,61.6,59.0,88,73,58,30.30,30.21,9,4,14,0.00
2013-1-28,78.2,74.6,72.1,67.3,64.7,62.1,78,71,65,30.33,30.24,9,6,15,0.00
2013-1-29,78.0,74.6,73.0,70.1,67.6,65.1,84,79,74,30.25,30.14,8,5,14,0.00
2013-1-30,78.1,74.4,72.1,69.0,66.7,63.4,88,77,69,30.14,29.99,11,6,16,0.00
2013-1-31,73.1,66.5,58.8,71.0,59.1,40.7,96,78,49,30.20,29.97,10,4,11,0.00
2013-2-1,71.3,62.1,53.4,56.8,49.4,39.8,75,63,52,30.29,30.18,12,6,16,0.00
2013-2-2,72.0,64.0,55.8,54.8,49.5,37.0,78,60,48,30.28,30.14,6,3,11,0.00
2013-2-3,72.5,63.1,55.4,54.5,49.5,42.7,90,64,35,30.19,30.08,10,3,12,0.00
2013-2-4,73.6,62.7,49.7,55.6,48.7,39.3,82,62,36,30.17,30.05,6,2,7,0.00
2013-2-5,76.8,67.2,55.2,64.2,58.9,52.3,91,76,57,30.10,30.02,6,2,9,0.00
2013-2-6,78.1,70.5,61.3,67.4,63.4,59.6,96,79,65,30.12,30.04,6,3,10,0.00
2013-2-7,78.4,73.9,70.1,67.5,64.9,62.6,82,74,65,30.09,29.96,8,4,11,0.00
2013-2-8,82.0,74.2,69.2,71.0,68.3,64.4,94,82,65,30.04,29.92,8,4,12,0.00
2013-2-9,77.1,70.5,64.8,68.2,64.4,60.3,96,82,70,30.19,30.03,8,4,14,0.00
2013-2-10,74.3,71.8,70.0,64.0,62.3,57.8,80,72,64,30.27,30.16,11,7,18,0.00
2013-2-11,77.3,73.4,70.7,66.8,64.4,61.5,79,73,68,30.24,30.13,9,5,12,0.00
2013-2-12,80.6,74.8,69.5,70.5,68.0,65.2,91,80,68,30.13,29.99,11,5,17,0.00
2013-2-13,80.8,75.4,69.7,73.1,70.9,67.2,95,86,77,30.02,29.91,12,5,18,0.00
2013-2-14,77.2,70.5,62.7,72.7,67.9,61.5,96,92,83,30.02,29.87,13,4,18,0.61
2013-2-15,71.8,66.4,63.1,67.9,64.7,61.9,98,95,83,30.03,29.96,7,3,11,0.75
2013-2-16,71.8,64.6,54.6,63.3,56.9,45.4,97,78,47,30.10,29.90,13,6,21,0.00
2013-2-17,57.2,51.0,44.2,45.4,29.1,17.4,73,46,24,30.33,30.09,12,7,17,0.00
2013-2-18,68.5,58.9,46.5,58.2,45.6,33.6,72,61,49,30.34,30.23,9,6,14,0.00
2013-2-19,76.4,71.8,67.3,66.9,61.8,53.9,91,71,60,30.22,30.10,9,5,16,0.00
2013-2-20,75.6,70.3,64.2,67.7,64.9,59.3,96,84,60,30.13,30.03,8,3,12,0.00
2013-2-21,78.9,74.6,71.1,68.9,67.0,64.2,87,77,68,30.11,30.01,6,4,10,0.00
2013-2-22,80.4,76.1,73.0,72.5,70.2,66.6,88,82,76,30.12,30.03,9,6,14,0.00
2013-2-23,80.1,76.3,73.4,73.1,71.2,68.6,92,84,76,30.05,29.94,11,7,0,0.00
2013-2-24,83.9,76.4,71.2,74.7,71.9,69.3,98,87,68,30.01,29.92,8,3,0,0.00
2013-2-25,81.4,74.8,69.7,74.1,70.7,67.4,95,87,76,29.93,29.83,11,4,18,0.00
2013-2-26,81.9,78.2,75.1,74.3,72.3,70.8,90,82,71,29.91,29.82,12,7,18,0.00
2013-2-27,76.7,70.0,64.3,73.2,66.1,62.6,97,88,67,29.98,29.88,6,3,8,0.20
2013-2-28,69.0,63.5,58.9,63.5,54.4,47.4,97,73,46,30.02,29.92,8,3,11,0.00
2013-3-1,63.9,61.6,57.7,57.4,51.9,46.8,83,71,58,30.01,29.92,7,4,10,0.00
2013-3-2,63.6,57.1,51.2,49.6,42.4,35.7,76,59,44,30.06,29.97,14,6,24,0.00
2013-3-3,60.3,53.8,48.9,46.9,42.7,39.8,88,67,49,30.17,29.98,10,5,16,0.01
2013-3-4,63.4,53.2,41.5,44.4,38.1,33.3,77,58,35,30.24,30.14,9,4,17,0.00
2013-3-5,72.7,62.6,49.5,58.8,53.0,44.3,90,72,56,30.20,30.11,7,3,9,0.00
2013-3-6,76.5,64.9,52.7,64.5,51.8,27.2,94,67,25,30.11,29.97,12,6,19,0.00
2013-3-7,68.4,58.5,46.9,54.9,45.3,35.2,88,63,43,30.20,30.08,8,4,9,0.00
2013-3-8,72.1,63.4,54.5,54.5,51.8,45.5,89,68,40,30.22,30.13,8,4,9,0.00
2013-3-9,72.9,65.0,56.0,58.5,53.9,49.5,86,68,56,30.21,30.12,10,5,12,0.00
2013-3-10,73.7,69.6,66.7,61.7,56.5,53.6,76,63,54,30.18,30.09,9,6,13,0.00
2013-3-11,73.3,70.3,69.2,61.6,60.2,58.5,76,70,63,30.12,30.02,10,6,18,0.00
2013-3-12,77.5,73.8,70.2,71.0,66.5,62.4,86,78,68,30.02,29.92,11,7,8,0.00
2013-3-13,74.2,65.6,57.0,66.0,56.4,46.2,92,74,44,30.14,29.99,12,6,18,0.00
2013-3-14,68.6,61.5,54.3,53.3,47.9,38.9,85,63,35,30.22,30.10,13,8,18,0.00
2013-3-15,70.1,62.2,53.2,54.4,49.9,43.8,79,65,49,30.27,30.17,9,4,13,0.00
2013-3-16,73.4,65.0,54.2,57.7,54.1,51.8,94,70,50,30.22,30.11,7,3,10,0.00
2013-3-17,74.6,68.6,59.6,62.3,58.6,53.6,85,71,59,30.17,30.05,8,3,12,0.00
2013-3-18,78.4,72.7,67.1,70.2,66.0,61.5,95,80,71,30.10,29.98,12,5,14,0.06
2013-3-19,77.6,72.4,68.1,70.0,68.2,65.8,96,87,67,30.03,29.82,10,3,11,0.01
2013-3-20,78.9,71.8,63.8,71.2,66.3,59.2,98,84,57,29.99,29.83,11,3,13,0.01
2013-3-21,72.2,66.0,60.0,61.4,54.6,48.0,92,68,44,29.96,29.84,9,4,10,0.00
2013-3-22,75.4,65.5,55.8,70.3,58.1,52.1,89,78,59,30.03,29.92,8,3,12,0.00
2013-3-23,82.4,76.7,72.2,75.2,72.6,70.1,95,88,72,30.01,29.83,13,5,18,0.05
2013-3-24,88.4,79.7,73.2,74.0,72.0,67.8,96,79,57,29.91,29.70,14,7,20,0.02
2013-3-25,77.2,73.2,65.4,73.1,59.9,42.4,95,67,34,30.01,29.76,10,5,15,0.01
2013-3-26,65.1,60.2,52.2,43.8,38.0,30.5,66,45,28,30.23,30.00,12,8,17,0.00
2013-3-27,65.3,56.0,45.3,48.3,42.4,35.4,73,61,44,30.27,30.18,9,5,16,0.00
2013-3-28,68.7,60.9,51.4,50.8,44.7,31.6,74,57,28,30.28,30.19,8,4,12,0.00
2013-3-29,73.0,65.1,56.5,54.6,50.0,42.9,70,58,46,30.31,30.23,10,5,16,0.00
2013-3-30,73.3,68.7,64.3,56.0,52.8,49.8,66,57,46,30.29,30.18,7,4,10,0.00
2013-3-31,78.3,72.7,68.1,67.5,62.5,55.1,81,70,61,30.21,30.07,9,5,12,0.00
2013-4-1,84.0,75.1,70.3,71.9,67.8,63.0,89,79,53,30.07,29.96,13,5,19,0.13
2013-4-2,78.6,71.7,65.5,68.1,66.1,63.9,97,83,66,30.10,30.00,7,4,12,0.00
2013-4-3,80.5,76.1,72.6,70.9,68.9,66.8,85,79,70,30.08,30.01,9,5,12,0.00
2013-4-4,81.2,75.1,67.6,73.7,70.4,65.8,97,86,76,30.07,29.92,12,6,17,1.10
2013-4-5,73.3,68.1,65.3,71.5,66.0,63.6,97,93,81,30.00,29.84,9,4,11,0.81
2013-4-6,76.0,68.4,58.9,66.6,61.6,57.1,97,80,63,30.10,29.94,10,6,20,0.00
2013-4-7,76.7,73.1,70.7,64.7,63.5,61.7,80,72,65,30.16,30.04,9,6,13,0.00
2013-4-8,78.5,73.8,64.3,65.2,62.3,58.9,85,68,57,30.15,30.06,7,4,12,0.00
2013-4-9,79.4,75.5,73.1,69.1,67.1,64.7,79,75,68,30.17,30.06,10,6,16,0.00
2013-4-10,80.8,77.1,74.2,72.9,70.5,66.5,86,80,76,30.12,30.01,10,6,12,0.00
2013-4-11,81.0,77.7,75.0,73.8,72.4,70.4,89,84,76,30.04,29.92,9,7,16,0.02
2013-4-12,83.5,78.6,76.3,76.9,74.6,73.5,95,88,78,29.97,29.89,13,7,17,0.18
2013-4-13,81.9,76.9,73.6,75.6,73.5,71.0,96,89,77,29.99,29.89,9,3,14,0.36
2013-4-14,83.2,79.0,75.1,76.1,74.6,72.5,96,87,76,29.99,29.91,11,5,14,0.01
2013-4-15,85.0,77.0,69.0,77.7,73.4,67.5,97,89,73,30.09,29.93,10,3,14,1.31
2013-4-16,83.2,77.1,71.1,77.2,73.2,70.4,99,88,76,30.13,30.04,10,4,14,0.01
2013-4-17,80.7,77.5,75.1,71.6,69.8,68.1,85,77,66,30.12,30.04,11,6,13,0.00
2013-4-18,83.7,79.5,76.0,74.2,71.7,69.0,85,77,67,30.08,29.99,9,5,16,0.00
2013-4-19,85.0,80.7,77.7,75.0,73.2,71.1,86,78,69,30.07,29.98,12,7,20,0.00
2013-4-20,85.1,77.4,72.3,77.4,73.9,69.9,99,89,71,30.09,29.97,12,4,16,1.68
2013-4-21,82.4,76.6,71.8,74.0,72.2,69.3,96,86,74,30.11,30.00,8,4,12,0.00
2013-4-22,82.5,73.9,68.9,72.6,70.2,67.9,99,89,67,30.06,29.94,11,3,14,1.64
2013-4-23,80.6,74.0,66.9,70.3,66.7,62.3,99,79,62,30.10,29.97,13,7,16,0.01
2013-4-24,80.7,76.5,73.1,67.4,64.4,61.1,74,66,59,30.15,30.05,8,5,11,0.00
2013-4-25,78.5,75.6,72.4,64.3,62.9,61.2,72,65,58,30.22,30.09,8,5,10,0.00
2013-4-26,79.2,75.4,71.4,67.2,64.7,61.5,75,70,64,30.24,30.13,10,5,14,0.00
2013-4-27,79.6,76.2,73.1,68.2,65.0,62.1,78,68,61,30.22,30.10,9,6,16,0.00
2013-4-28,80.1,76.5,73.5,66.5,64.7,62.7,77,67,57,30.13,30.01,9,6,15,0.00
2013-4-29,81.1,77.3,75.0,71.9,68.8,63.8,84,75,66,30.05,29.95,8,5,14,0.02
2013-4-30,80.4,75.5,69.6,73.6,70.7,67.8,96,85,76,30.01,29.94,7,3,10,0.22
2013-5-1,82.9,75.9,70.5,73.7,71.3,68.1,95,86,72,30.02,29.94,7,2,11,0.62
2013-5-2,77.2,72.6,65.8,72.9,69.8,64.3,99,91,80,29.96,29.81,16,5,18,5.51
2013-5-3,83.5,74.1,67.5,72.4,69.2,66.9,99,86,60,29.83,29.70,8,3,12,0.11
2013-5-4,85.8,76.0,67.7,69.9,67.8,65.7,98,78,53,29.82,29.70,8,4,15,0.01
2013-5-5,79.0,73.1,68.2,67.1,62.4,52.7,94,71,41,29.95,29.77,8,5,13,0.00
2013-5-6,81.7,71.7,59.6,64.3,60.6,55.6,94,69,47,30.03,29.93,7,3,8,0.00
2013-5-7,82.8,72.2,62.6,67.5,61.8,58.1,89,71,46,30.08,29.99,8,4,12,0.00
2013-5-8,82.3,73.1,62.2,67.0,62.6,57.2,93,71,45,30.15,30.06,6,2,9,0.00
2013-5-9,83.8,76.4,66.1,73.8,68.2,59.5,85,76,62,30.16,30.08,7,3,9,0.00
2013-5-10,85.5,79.9,72.4,75.0,72.7,69.5,92,79,60,30.15,30.04,8,4,11,0.03
2013-5-11,84.6,79.0,73.5,76.1,73.6,68.7,97,84,70,30.08,30.00,11,5,14,0.00
2013-5-12,85.9,77.8,69.7,75.1,72.4,68.6,99,84,63,30.08,29.97,11,4,16,0.97
2013-5-13,85.4,76.9,70.1,72.9,70.5,67.8,100,82,62,30.10,30.00,8,3,12,0.01
2013-5-14,79.0,76.2,74.0,67.9,62.1,57.0,75,62,50,30.19,30.07,10,7,17,0.00
2013-5-15,80.0,76.0,73.2,65.8,61.3,57.0,67,61,50,30.21,30.11,8,6,14,0.00
2013-5-16,81.0,76.6,72.5,65.5,62.5,57.4,70,62,52,30.13,30.06,7,4,11,0.00
2013-5-17,83.9,78.5,72.5,74.2,70.4,64.4,96,77,65,30.11,30.02,10,3,15,0.52
2013-5-18,84.0,79.2,73.5,75.6,72.6,70.5,96,81,71,30.12,30.05,8,4,11,0.11
2013-5-19,83.0,79.4,76.6,71.8,70.2,67.6,80,74,63,30.12,30.02,7,4,10,0.00
2013-5-20,81.1,76.8,70.3,74.8,72.5,69.0,98,87,79,30.09,29.99,8,3,9,1.40
2013-5-21,80.8,76.2,70.9,74.4,71.6,69.3,99,86,75,30.06,29.95,8,4,16,0.31
2013-5-22,83.2,76.4,72.0,75.4,72.5,68.9,95,88,75,29.99,29.91,7,3,12,0.68
2013-5-23,90.4,80.9,73.7,76.7,73.6,66.3,96,80,47,30.02,29.92,7,4,12,0.00
2013-5-24,86.6,81.1,75.5,77.1,74.9,73.1,97,82,66,30.07,29.96,8,3,13,0.00
2013-5-25,83.1,79.5,74.9,74.9,68.8,65.2,87,70,57,30.17,30.05,12,6,18,0.00
2013-5-26,82.9,78.7,74.7,68.9,66.5,62.0,80,66,60,30.19,30.12,10,6,13,0.00
2013-5-27,83.0,78.7,73.8,73.6,70.8,65.1,93,77,67,30.17,30.08,10,7,17,0.14
2013-5-28,81.3,78.0,73.0,74.5,72.8,70.5,93,84,77,30.13,30.05,11,7,17,0.22
2013-5-29,79.6,75.4,71.4,74.3,71.9,68.1,98,89,75,30.11,30.04,13,7,20,2.52
2013-5-30,81.6,77.9,73.4,74.8,72.9,70.6,96,85,77,30.08,30.02,14,9,18,0.18
2013-5-31,81.0,78.0,75.0,76.3,74.0,71.5,96,88,81,30.07,30.01,11,6,16,0.78
2013-6-1,83.0,77.1,73.3,76.9,74.4,72.2,97,92,80,30.04,29.97,7,3,10,1.21
2013-6-2,86.8,78.4,71.4,77.7,73.8,70.8,99,86,68,30.02,29.94,9,2,11,0.00
2013-6-3,86.2,78.6,73.2,76.9,74.2,71.1,96,87,64,30.05,29.93,9,2,12,0.32
2013-6-4,84.2,78.2,72.5,76.7,74.4,70.9,98,89,70,30.06,29.97,6,2,8,0.17
2013-6-5,83.3,80.9,79.2,77.3,76.3,74.4,89,86,81,30.03,29.91,8,4,12,0.00
2013-6-6,86.0,79.9,75.2,79.8,76.3,72.1,99,89,80,29.92,29.80,14,8,22,0.84
2013-6-7,89.2,77.7,73.3,78.2,74.0,71.7,97,89,67,30.01,29.86,9,4,15,0.73
2013-6-8,86.3,79.7,74.1,80.1,76.1,72.9,97,89,76,30.12,29.98,8,3,11,0.16
2013-6-9,86.0,82.2,79.6,77.1,75.5,73.8,90,80,72,30.13,30.05,9,6,14,0.00
2013-6-10,85.8,82.6,80.2,78.1,76.4,74.7,88,82,74,30.11,30.02,8,5,12,0.00
2013-6-11,86.7,81.7,78.2,78.4,76.6,74.0,94,85,68,30.11,30.02,7,4,9,0.20
2013-6-12,87.1,80.8,76.9,78.2,76.5,75.3,96,87,72,30.09,30.03,5,2,9,0.00
2013-6-13,88.8,80.2,74.7,77.2,74.7,70.8,98,84,56,30.07,29.96,7,2,10,0.01
2013-6-14,90.9,80.2,74.4,77.3,73.8,71.6,95,82,56,29.99,29.89,9,3,16,0.17
2013-6-15,87.6,81.1,74.8,76.8,75.1,73.5,97,83,65,30.07,29.94,6,2,10,0.01
2013-6-16,87.9,82.4,75.5,79.0,76.2,73.7,95,82,70,30.11,30.03,6,3,11,0.05
2013-6-17,88.1,84.0,80.5,78.1,76.2,74.0,84,78,70,30.10,30.02,7,4,11,0.00
2013-6-18,88.1,84.2,80.6,77.6,76.4,75.2,86,78,68,30.09,30.00,7,4,11,0.00
2013-6-19,88.4,83.5,78.6,77.6,76.3,75.4,91,79,67,30.06,30.00,8,4,12,0.00
2013-6-20,88.1,80.7,69.7,78.7,74.7,68.3,98,83,68,30.10,30.03,11,3,11,2.01
2013-6-21,88.3,83.8,80.8,76.6,74.9,72.7,85,75,66,30.13,30.04,7,4,11,0.00
2013-6-22,87.0,83.2,79.9,76.0,74.7,73.2,84,76,68,30.12,30.05,8,4,13,0.00
2013-6-23,87.0,83.1,79.1,77.5,74.8,72.3,85,76,65,30.14,30.06,9,5,14,0.04
2013-6-24,86.6,83.2,77.3,76.4,74.7,72.4,86,76,69,30.18,30.09,8,6,15,0.01
2013-6-25,86.8,82.7,79.9,78.1,75.8,73.6,86,80,70,30.14,30.05,8,5,11,0.00
2013-6-26,88.0,83.3,79.7,77.1,75.7,73.8,86,78,66,30.10,30.02,7,4,11,0.06
2013-6-27,88.0,82.3,77.5,78.1,75.7,72.3,92,81,69,30.07,29.97,6,2,9,0.05
2013-6-28,87.0,80.3,73.4,78.4,74.9,70.6,96,84,69,30.01,29.88,9,3,14,1.16
2013-6-29,87.9,80.5,73.7,78.2,75.4,71.3,97,85,69,29.94,29.84,9,2,18,0.04
2013-6-30,87.2,81.5,77.5,77.8,75.3,73.6,91,82,66,29.96,29.87,13,6,20,0.03
2013-7-1,87.3,82.1,75.1,78.3,76.2,71.5,94,82,74,30.05,29.93,12,5,15,0.25
2013-7-2,87.6,82.7,76.2,79.5,77.1,74.0,96,83,72,30.13,29.99,8,4,14,0.01
2013-7-3,87.1,82.2,76.9,78.3,76.0,72.8,91,82,73,30.14,30.06,9,5,15,0.14
2013-7-4,87.8,83.5,76.4,77.7,75.7,71.7,91,78,70,30.17,30.08,9,6,13,0.00
2013-7-5,85.4,81.6,76.7,77.8,75.7,73.0,93,83,72,30.15,30.07,10,6,14,0.61
2013-7-6,86.3,82.5,79.0,77.2,75.2,73.0,87,79,68,30.13,30.05,9,6,12,0.13
2013-7-7,86.5,83.2,80.3,77.9,75.5,74.0,84,78,72,30.11,30.04,9,6,13,0.00
2013-7-8,86.8,82.9,80.4,76.0,74.3,72.3,85,75,67,30.16,30.09,7,4,11,0.03
2013-7-9,85.3,80.9,75.7,75.1,73.4,71.3,90,78,64,30.16,30.06,10,3,12,0.09
2013-7-10,83.7,77.8,70.6,76.9,73.5,68.9,97,87,78,30.10,30.02,7,2,12,2.40
2013-7-11,87.3,82.7,77.6,77.6,75.8,73.4,90,80,69,30.06,29.96,8,3,11,0.00
2013-7-12,89.0,80.8,76.2,77.4,74.5,70.5,95,82,64,29.99,29.92,8,2,11,0.00
2013-7-13,86.5,75.5,71.8,76.5,72.7,70.5,97,91,70,30.05,29.93,6,2,12,1.97
2013-7-14,87.0,78.5,71.5,76.3,73.4,70.3,98,85,63,30.11,30.00,8,4,14,0.66
2013-7-15,86.1,79.4,72.8,76.6,73.7,70.7,96,83,69,30.11,30.03,7,3,14,0.09
2013-7-16,82.2,77.9,72.1,75.1,72.4,68.8,96,84,72,30.17,30.06,13,6,19,0.29
2013-7-17,80.1,76.7,72.1,76.1,73.1,70.8,97,89,79,30.17,30.06,9,4,10,1.58
2013-7-18,82.2,76.3,71.5,77.5,73.7,69.7,97,92,84,30.14,30.07,9,2,11,0.78
2013-7-19,86.2,80.9,73.3,78.5,76.3,72.4,98,86,75,30.14,30.06,6,3,0,0.00
2013-7-20,83.0,80.6,76.8,78.0,76.4,72.5,90,87,80,30.12,30.06,7,2,12,0.00
2013-7-21,88.3,81.2,76.1,79.9,76.6,72.8,94,86,74,30.17,30.07,6,2,8,0.00
2013-7-22,87.5,83.0,79.3,77.6,76.1,73.0,90,80,69,30.16,30.08,9,4,12,0.00
2013-7-23,88.5,82.7,75.9,79.2,76.1,74.1,95,81,66,30.12,29.99,10,4,15,0.00
2013-7-24,92.6,84.2,77.2,78.5,74.4,68.6,92,74,51,30.04,29.92,7,3,10,0.00
2013-7-25,91.8,84.0,74.8,76.2,74.4,72.2,93,74,57,30.03,29.93,7,3,12,0.00
2013-7-26,92.5,81.7,76.7,76.7,75.4,72.7,94,82,57,30.04,29.95,7,3,12,0.20
2013-7-27,87.6,79.5,76.0,80.1,75.7,73.4,96,89,70,30.02,29.95,8,2,12,0.16
2013-7-28,86.1,80.6,75.8,78.3,75.8,72.2,94,86,76,30.09,29.97,5,2,10,0.30
2013-7-29,88.0,82.2,75.9,79.4,76.8,73.0,94,84,72,30.15,30.03,8,3,11,0.18
2013-7-30,87.6,83.2,72.9,79.7,77.2,70.1,96,83,73,30.18,30.09,9,4,11,0.32
2013-7-31,88.0,84.4,81.5,78.5,76.3,73.3,86,77,69,30.13,30.02,8,4,11,0.00
2013-8-1,87.4,83.3,80.4,76.9,75.0,72.6,83,76,66,30.07,29.96,8,5,13,0.00
2013-8-2,88.2,80.6,72.2,77.6,74.6,68.8,97,83,65,30.07,29.93,7,2,12,0.52
2013-8-3,85.9,79.0,71.7,78.6,76.1,68.9,98,91,74,30.17,30.04,11,2,13,0.22
2013-8-12,-200.0,0.0,200.0,-99.9,-99.9,-99.9,0,0,100,30.10,30.03,7,5,12,0.13
2013-8-13,-200.0,0.0,200.0,-99.9,-99.9,-99.9,0,0,100,30.06,29.97,6,3,11,0.00
2013-8-14,-200.0,0.0,200.0,-99.9,-99.9,-99.9,0,0,100,30.04,29.95,6,4,10,0.00
2013-8-15,-200.0,0.0,200.0,-99.9,-99.9,-99.9,0,0,100,30.08,29.98,8,3,9,0.92
2013-8-16,-200.0,0.0,200.0,-99.9,-99.9,-99.9,0,0,100,30.07,30.00,6,2,8,0.00
2013-8-17,-200.0,0.0,200.0,-99.9,-99.9,-99.9,0,0,100,30.10,30.02,7,4,11,0.00
2013-8-18,-200.0,0.0,200.0,-99.9,-99.9,-99.9,0,0,100,30.10,30.01,10,5,12,0.12
2013-8-19,-200.0,0.0,200.0,-99.9,-99.9,-99.9,0,0,100,30.09,29.98,8,5,15,0.00
2013-8-20,-200.0,0.0,200.0,-99.9,-99.9,-99.9,0,0,100,30.08,30.00,9,5,12,0.00
2013-8-21,-200.0,0.0,200.0,-99.9,-99.9,-99.9,0,0,100,30.09,30.01,10,6,15,0.05
2013-8-22,-200.0,0.0,200.0,-99.9,-99.9,-99.9,0,0,100,30.08,29.97,8,5,15,0.07
2013-8-23,-200.0,0.0,200.0,-99.9,-99.9,-99.9,0,0,100,30.03,29.95,8,3,11,0.00
2013-8-24,-200.0,0.0,200.0,-99.9,-99.9,-99.9,0,0,100,30.14,29.99,7,3,12,0.21
2013-8-25,-200.0,0.0,200.0,-99.9,-99.9,-99.9,0,0,100,30.17,30.04,7,3,10,0.08
2013-8-26,-200.0,0.0,200.0,-99.9,-99.9,-99.9,0,0,100,30.14,30.03,8,3,10,0.05
2013-8-27,-200.0,0.0,200.0,-99.9,-99.9,-99.9,0,0,100,30.07,29.99,8,2,9,0.24
2013-8-28,-200.0,0.0,200.0,-99.9,-99.9,-99.9,0,0,100,30.06,29.97,6,3,8,0.12
2013-8-29,-200.0,0.0,200.0,-99.9,-99.9,-99.9,0,0,100,30.04,29.94,6,2,11,0.11
2013-8-30,-200.0,0.0,200.0,-99.9,-99.9,-99.9,0,0,100,30.02,29.92,8,3,10,0.00
2013-8-31,-200.0,0.0,200.0,-99.9,-99.9,-99.9,0,0,100,30.00,29.93,5,2,9,0.06
2013-9-1,-200.0,0.0,200.0,-99.9,-99.9,-99.9,0,0,100,30.02,29.94,6,1,7,0.01
2013-9-2,-200.0,0.0,200.0,-99.9,-99.9,-99.9,0,0,100,30.05,29.96,7,1,11,0.16
2013-9-3,-200.0,0.0,200.0,-99.9,-99.9,-99.9,0,0,100,30.04,29.95,6,2,12,0.01
2013-9-4,-200.0,0.0,200.0,-99.9,-99.9,-99.9,0,0,100,30.08,29.96,5,2,7,0.40
2013-9-5,-200.0,0.0,200.0,-99.9,-99.9,-99.9,0,0,100,30.09,30.01,6,3,9,0.00
2013-9-6,-200.0,0.0,200.0,-99.9,-99.9,-99.9,0,0,100,30.05,29.94,8,4,11,0.00
2013-9-7,-200.0,0.0,200.0,-99.9,-99.9,-99.9,0,0,100,30.00,29.92,11,2,12,0.18
2013-9-8,-200.0,0.0,200.0,-99.9,-99.9,-99.9,0,0,100,29.97,29.87,6,2,7,0.01
2013-9-9,-200.0,0.0,200.0,-99.9,-99.9,-99.9,0,0,100,30.02,29.91,8,4,14,0.00
2013-9-10,-200.0,0.0,200.0,-99.9,-99.9,-99.9,0,0,100,30.06,29.97,10,5,11,0.03
2013-9-11,-200.0,0.0,200.0,-99.9,-99.9,-99.9,0,0,100,30.08,29.98,9,4,13,1.07
2013-9-12,-200.0,0.0,200.0,-99.9,-99.9,-99.9,0,0,100,30.03,29.90,4,2,7,0.01
2013-9-13,-200.0,0.0,200.0,-99.9,-99.9,-99.9,0,0,100,29.92,29.82,5,2,8,0.00
2013-9-14,-200.0,0.0,200.0,-99.9,-99.9,-99.9,0,0,100,29.99,29.84,7,3,11,0.00
2013-9-15,-200.0,0.0,200.0,-99.9,-99.9,-99.9,0,0,100,30.06,29.94,10,4,19,0.20
2013-9-16,-200.0,0.0,200.0,-99.9,-99.9,-99.9,0,0,100,30.06,29.97,9,-18,11,0.51
2013-9-17,-200.0,0.0,200.0,-99.9,-99.9,-99.9,0,0,100,30.05,29.93,0,-999,0,0.00
2013-9-18,-200.0,0.0,200.0,-99.9,-99.9,-99.9,0,0,100,30.03,29.93,0,-999,0,0.00
2013-9-19,88.1,32.6,78.7,74.7,-32.5,-99.9,85,29,68,30.02,29.94,8,-600,13,0.32
2013-9-20,85.8,81.7,78.3,72.6,69.5,67.2,82,67,56,30.01,29.91,9,5,13,0.00
2013-9-21,86.2,82.2,79.1,73.5,71.6,69.7,77,70,63,29.93,29.79,5,3,8,0.00
2013-9-22,90.7,82.6,76.8,77.0,75.1,72.8,92,79,60,29.88,29.77,8,3,16,0.18
2013-9-23,88.6,80.4,74.7,78.5,75.9,72.0,96,87,66,29.99,29.87,12,1,13,0.51
2013-9-24,92.2,81.2,74.8,80.9,75.6,71.0,96,84,57,29.98,29.88,10,3,15,0.06
2013-9-25,88.6,80.4,74.4,78.9,73.6,70.2,89,80,61,29.93,29.82,8,2,11,0.01
2013-9-26,88.1,80.0,76.1,79.4,75.9,73.0,95,87,72,29.88,29.81,12,3,13,0.93
2013-9-27,87.6,80.5,74.7,76.2,73.0,68.3,94,79,54,29.93,29.83,10,4,15,0.00
2013-9-28,85.9,79.5,73.0,74.6,72.3,70.4,94,79,65,29.97,29.88,10,4,15,0.29
2013-9-29,85.3,81.6,78.1,71.8,69.7,68.2,78,67,58,29.98,29.89,7,4,10,0.00
2013-9-30,85.9,82.0,76.6,72.6,70.4,68.5,80,68,57,30.02,29.92,6,3,10,0.00
2013-10-1,85.8,82.8,80.1,74.3,71.9,69.6,76,70,65,30.04,29.97,8,5,19,0.00
2013-10-2,85.1,82.2,80.5,74.4,72.6,71.2,80,73,65,30.06,29.98,9,6,13,0.00
2013-10-3,85.4,82.1,80.2,75.1,73.0,70.8,80,74,67,30.07,29.96,7,4,11,0.00
2013-10-4,85.5,82.1,79.4,72.7,71.3,68.5,78,70,62,30.07,30.00,6,4,11,0.00
2013-10-5,86.3,80.7,72.1,73.8,70.9,68.5,89,72,61,30.05,29.95,8,3,12,0.00
2013-10-6,86.3,82.1,77.0,76.5,72.3,69.7,86,73,61,29.98,29.89,6,2,10,0.09
2013-10-7,89.8,79.4,73.6,76.4,71.9,69.3,90,79,55,29.91,29.83,12,2,16,0.17
2013-10-8,88.7,80.6,75.9,77.2,74.0,70.0,94,81,59,29.95,29.86,5,2,11,0.08
2013-10-9,83.8,77.8,71.6,75.0,72.2,68.8,91,83,72,30.00,29.92,10,4,13,0.00
2013-10-10,84.8,79.3,72.4,73.9,71.1,68.2,92,77,61,30.02,29.95,10,5,14,0.01
2013-10-11,84.0,78.9,70.5,70.4,67.7,65.4,89,69,59,30.03,29.95,9,4,19,0.00
2013-10-12,84.5,78.5,68.5,69.8,67.3,64.7,90,69,55,30.04,29.96,7,3,11,0.00
2013-10-13,83.7,79.1,72.7,70.5,66.3,62.1,88,66,49,30.06,29.98,10,4,15,0.00
2013-10-14,84.2,78.3,70.3,69.8,67.8,66.1,87,71,58,30.03,29.92,7,3,11,0.00
2013-10-15,83.8,78.4,71.4,72.4,69.5,67.6,91,75,64,29.97,29.89,8,3,12,0.00
2013-10-16,83.8,78.5,72.8,71.8,69.0,65.4,87,73,61,29.97,29.90,6,2,11,0.01
2013-10-17,85.0,80.0,72.3,72.4,70.6,68.7,89,74,63,29.98,29.91,6,2,10,0.00
2013-10-18,86.6,81.0,72.5,74.0,71.4,68.9,90,73,64,30.00,29.91,6,3,10,0.00
2013-10-19,87.3,82.5,78.8,74.9,72.4,69.7,79,72,60,29.98,29.89,7,4,10,0.00
2013-10-20,86.1,81.7,77.4,76.7,74.6,73.0,88,79,72,29.98,29.89,6,2,8,0.00
2013-10-21,88.2,83.2,79.3,77.1,75.2,73.3,86,77,66,30.02,29.92,6,3,10,0.02
2013-10-22,88.6,82.8,77.5,77.1,75.2,73.0,89,78,61,29.98,29.85,9,4,14,0.00
2013-10-23,87.5,80.5,76.4,75.4,72.4,67.9,92,77,59,29.97,29.83,10,4,15,0.00
2013-10-24,80.4,76.9,73.1,68.4,65.0,61.4,77,67,57,30.10,29.95,9,5,14,0.00
2013-10-25,81.8,76.5,70.1,66.2,63.5,60.5,79,65,52,30.16,30.07,12,6,15,0.00
2013-10-26,81.3,77.9,71.0,64.7,62.2,60.0,72,59,52,30.16,30.07,8,5,0,0.00
2013-10-27,81.0,74.7,67.1,64.5,62.0,59.4,77,65,54,30.11,30.04,6,4,0,0.00
2013-10-28,82.6,78.0,75.4,67.2,63.7,60.5,67,62,48,30.15,30.06,7,4,11,0.00
2013-10-29,83.7,79.6,76.5,69.2,66.6,63.8,70,65,57,30.19,30.10,10,6,16,0.00
2013-10-30,82.8,79.4,77.1,68.6,66.5,63.9,71,65,56,30.20,30.10,9,7,15,0.00
2013-10-31,84.1,80.2,76.0,72.5,70.1,66.2,81,72,62,30.13,30.01,8,5,13,0.02
2013-11-1,85.9,81.3,78.0,74.5,72.4,70.4,80,74,68,30.02,29.90,8,4,10,0.00
2013-11-2,88.9,79.3,71.5,72.6,69.3,62.2,94,74,43,29.95,29.82,7,2,10,0.00
2013-11-3,80.4,74.8,68.5,65.0,62.6,60.2,83,67,52,30.04,29.90,13,8,17,0.00
2013-11-4,79.6,76.9,72.8,68.4,63.6,55.9,83,64,45,30.09,30.02,15,10,22,0.05
2013-11-5,81.0,78.8,76.9,71.1,68.4,64.4,80,70,63,30.10,30.03,13,10,20,0.00
2013-11-6,82.5,79.6,76.5,69.7,68.5,66.7,75,69,59,30.08,30.01,12,7,16,0.00
2013-11-7,83.2,76.4,70.2,71.8,69.2,66.9,91,79,63,30.03,29.93,8,3,12,0.00
2013-11-8,83.0,76.6,71.8,73.1,70.0,67.4,92,80,63,30.05,29.95,14,7,21,0.39
2013-11-9,79.2,76.0,72.8,72.7,71.2,70.0,95,85,78,30.13,30.02,13,10,23,0.91
2013-11-10,81.8,78.8,77.5,72.2,70.0,67.2,81,74,70,30.13,30.06,10,6,15,0.00
2013-11-11,81.9,78.6,77.0,70.9,68.5,65.4,77,71,66,30.13,30.06,8,6,14,0.00
2013-11-12,82.1,78.1,72.2,69.8,67.8,65.9,85,71,61,30.09,29.98,8,4,11,0.00
2013-11-13,76.3,72.5,70.2,66.9,62.9,55.8,86,72,60,30.22,30.00,16,10,23,0.01
2013-11-14,76.1,72.7,70.4,62.5,57.7,53.2,68,59,52,30.25,30.15,15,9,17,0.00
2013-11-15,80.7,77.2,73.7,68.7,66.1,61.6,75,69,63,30.16,30.04,10,7,17,0.00
2013-11-16,80.5,78.3,72.4,72.4,69.3,65.8,87,74,65,30.11,30.03,8,5,12,0.10
2013-11-17,82.9,79.8,77.9,72.7,70.5,68.4,83,74,65,30.09,30.02,8,5,13,0.00
2013-11-18,83.5,78.3,73.7,73.0,70.8,69.5,89,78,66,30.04,29.94,5,2,9,0.02
2013-11-19,83.0,75.2,72.6,73.8,70.6,69.0,93,86,69,29.96,29.87,7,2,12,0.10
2013-11-20,82.8,76.3,70.1,74.2,71.6,68.3,95,86,70,30.07,29.93,6,2,11,0.09
2013-11-21,78.3,75.3,71.2,75.1,71.7,69.3,96,89,78,30.15,30.05,10,4,15,2.82
2013-11-22,80.7,77.8,75.6,71.9,70.2,68.7,82,77,72,30.17,30.08,10,8,19,0.00
2013-11-23,80.5,77.7,73.6,71.4,70.2,68.5,84,78,71,30.09,29.99,8,5,14,0.00
2013-11-24,80.0,73.6,68.2,69.5,67.0,62.9,93,81,63,30.16,30.00,14,6,20,0.41
2013-11-25,74.6,73.2,72.0,68.8,64.6,59.9,86,74,65,30.22,30.07,14,11,24,0.03
2013-11-26,81.8,77.6,71.7,74.4,72.3,68.4,93,84,76,30.07,29.84,12,8,21,0.07
2013-11-27,78.5,71.3,58.1,74.6,64.4,50.9,95,80,53,30.13,29.81,12,6,15,0.64
2013-11-28,73.2,62.8,47.9,60.6,52.9,44.5,88,71,54,30.26,30.13,11,7,15,0.00
2013-11-29,76.1,71.3,62.0,63.5,59.2,54.8,84,66,56,30.28,30.20,12,7,18,0.00
2013-11-30,75.4,70.8,62.2,68.9,62.9,58.9,92,77,64,30.22,30.12,13,6,22,0.41
2013-12-1,78.6,70.6,63.4,69.3,65.8,60.1,96,86,70,30.12,29.96,8,3,10,1.35
2013-12-2,72.9,67.7,62.4,66.8,63.5,59.7,97,87,67,29.95,29.84,9,3,9,0.09
2013-12-3,77.6,72.8,60.9,66.0,63.2,58.8,93,73,56,30.02,29.92,3,2,6,0.00
2013-12-4,80.8,73.9,65.3,70.0,65.8,62.6,92,77,62,30.11,30.00,7,2,10,0.00
2013-12-5,81.7,77.7,74.5,71.1,68.8,66.1,78,74,68,30.18,30.09,7,4,10,0.00
2013-12-6,82.1,78.2,76.0,70.5,69.0,66.9,80,74,64,30.20,30.10,9,5,17,0.00
2013-12-7,82.2,77.0,69.6,71.3,69.0,65.9,89,77,64,30.23,30.15,8,3,13,0.00
2013-12-8,82.0,77.9,70.7,71.1,68.9,66.0,91,74,63,30.22,30.14,10,5,16,0.05
2013-12-9,82.2,78.7,76.4,70.8,68.4,65.0,79,71,58,30.21,30.12,7,4,11,0.00
2013-12-10,82.9,78.5,74.3,72.6,70.9,69.1,88,78,69,30.18,30.09,7,4,12,0.00
2013-12-11,81.4,76.5,70.7,73.7,70.7,68.6,94,83,71,30.21,30.13,5,2,9,0.01
2013-12-12,78.1,72.7,69.5,70.3,66.0,59.9,94,80,65,30.23,30.14,12,6,17,0.00
2013-12-13,77.5,73.6,70.8,68.9,63.3,57.6,85,70,62,30.21,30.11,10,8,16,0.09
2013-12-14,81.3,77.8,74.2,72.2,70.5,68.2,83,78,70,30.13,30.01,9,6,13,0.01
2013-12-15,84.1,77.1,71.0,74.0,71.3,67.3,91,83,69,30.07,29.94,7,4,13,0.18
2013-12-16,73.0,68.0,62.3,67.2,60.8,58.1,88,78,66,30.17,30.04,8,4,10,0.00
2013-12-17,76.2,68.1,59.5,64.5,59.1,56.7,91,74,59,30.19,30.11,9,4,15,0.00
2013-12-18,75.1,66.4,61.4,58.9,57.3,55.5,89,74,53,30.25,30.15,10,4,13,0.00
2013-12-19,76.9,70.9,60.3,62.8,59.4,56.4,88,68,56,30.25,30.16,9,4,13,0.00
2013-12-20,80.4,77.1,74.3,69.7,67.0,62.5,76,71,65,30.20,30.11,7,5,14,0.00
2013-12-21,81.2,78.5,76.9,72.5,71.1,68.9,83,78,73,30.16,30.08,8,6,15,0.00
2013-12-22,82.3,79.0,77.2,73.2,71.9,70.2,83,79,72,30.17,30.09,8,6,18,0.00
2013-12-23,82.3,78.4,71.9,73.6,71.5,68.5,90,79,73,30.19,30.13,10,5,14,0.00
2013-12-24,81.7,73.4,68.3,72.2,68.9,66.2,95,86,65,30.19,30.09,10,2,12,0.00
2013-12-25,75.7,72.9,71.5,67.2,65.2,63.8,85,77,70,30.18,30.11,12,9,20,0.02
2013-12-26,76.8,75.9,75.3,69.9,69.3,68.8,82,80,77,30.15,30.08,7,5,17,0.00
2013-12-27,79.2,76.8,75.0,71.0,69.3,67.8,81,78,74,30.20,30.10,9,6,14,0.00
2013-12-28,79.5,76.8,75.1,72.1,70.3,67.6,88,81,75,30.18,30.04,10,7,16,0.03
2013-12-29,81.0,77.8,74.7,74.2,72.5,71.0,92,84,77,30.05,29.94,10,6,18,0.00
2013-12-30,77.8,72.8,68.7,72.5,69.2,64.7,95,89,78,30.15,29.99,6,3,10,0.00
2013-12-31,77.6,72.8,67.7,67.8,64.3,60.6,88,75,64,30.24,30.11,13,7,18,0.00
2014-1-1,79.6,76.1,74.0,73.4,70.2,64.1,92,82,71,30.21,30.06,9,5,13,0.30
2014-1-2,85.2,78.0,73.6,71.9,69.0,65.2,87,75,52,30.05,29.88,10,5,14,0.00